Tracking 18980 objects as of 18-Feb-2018
HD Live streaming from Space Station
objects crossing your sky now

IRIDIUM 33 DEB

Track IRIDIUM 33 DEB now!
10-day predictions


NORAD ID: 34150
Int'l Code: 1997-051ED
Perigee: 654.3 km
Apogee: 776.8 km
Inclination: 86.5 °
Period: 98.9 minutes
Semi major axis: 7086 km
RCS: 0.0227 m2 (small)
Launch date: September 14, 1997
Source: United States (US)
Launch site: TYURATAM MISSILE AND SPACE COMPLEX (TTMTR)

Note: This is SATELLITE DEBRIS
aabbcc
Your satellite tracking list
Your tracking list is empty




NASA's NSSDC Master Catalog

Two Line Element Set (TLE):
1 34150U 97051ED  18048.77786175 +.00004974 +00000-0 +10870-2 0  9996
2 34150 086.4828 222.9273 0086427 170.5711 247.5086 14.55286322471379
Source of the keplerian elements: AFSPC